Regional Weather Roundup
Issued by NWS Sioux Falls, SD

Home | Current Version | Previous Version | Text Only | Print | Product List | Glossary On
Versions: 1 2 3 4 5 6 7 8 9 10 11 12 13 14 15 16 17 18 19 20 21 22 23 24 25 26 27 28 29 30 31 32 33 34 35 36 37 38 39 40 41 42 43 44 45 46 47 48 49 50
000
ASUS43 KFSD 010102
RWRFSD

WEATHER ROUNDUP FOR SE SOUTH DAKOTA/SW MINNESOTA/NW IOWA
NATIONAL WEATHER SERVICE SIOUX FALLS SD
800 PM CDT TUE SEP 30 2014

NOTE: "FAIR" INDICATES FEW OR NO CLOUDS BELOW 12,000 FEET WITH NO
SIGNIFICANT WEATHER AND OR OBSTRUCTIONS TO VISIBILITY.


SDZ038>040-050-052>070-010200-
SOUTHEAST SOUTH DAKOTA

CITY           SKY/WX    TMP DP  RH WIND       PRES   REMARKS
CHAMBERLAIN    PTCLDY    65  51  61 W9        29.62R
HURON          MOCLDY    71  47  42 S10       29.59R
MADISON        CLOUDY    63  63 100 S16G29    29.70R
MITCHELL       PTCLDY    70  60  70 S16G24    29.64R
SIOUX FALLS    CLOUDY    66  61  84 S23G29    29.72R
WINNER         FAIR      64  47  53 W9        29.64R
YANKTON        CLEAR     64  61  88 SE15      29.70R
$$

MNZ071-072-080-081-089-090-097-098-010200-
SOUTHWEST MINNESOTA

CITY           SKY/WX    TMP DP  RH WIND       PRES   REMARKS
FAIRMONT       CLOUDY    59  54  82 SE17G23   29.82S
JACKSON        CLOUDY    59  55  88 SE13      29.83S
LUVERNE        CLOUDY    63  59  88 SE17G23   29.76F
MARSHALL       MOCLDY    61  54  77 S17       29.73S
MONTEVIDEO     CLOUDY    59  54  82 S15G21    29.74F
PIPESTONE      CLOUDY    63  59  88 S17G26    29.75R
REDWOOD FALLS  CLOUDY    59  54  83 SE15G23   29.78S
TRACY          CLOUDY    60  58  91 S14       29.78R
WINDOM         CLOUDY    61  57  88 SE14      29.81S
WORTHINGTON    CLOUDY    59  57  94 SE13G21   29.81R
$$

IAZ001>003-012>014-020>022-031-032-NEZ013-014-SDZ071-010200-
NORTHWEST IOWA

CITY           SKY/WX    TMP DP  RH WIND       PRES   REMARKS
CHEROKEE       CLOUDY    61  61  99 SE9       29.82R
DENISON        LGT RAIN  63  63 100 SE10G18   29.78R
ESTHERVILLE    CLOUDY    59  57  93 SE7       29.82S
LE MARS          N/A     64  61  88 SE10G23   29.79R
ORANGE CITY    MOCLDY    63  59  88 SE9G16    29.79R
SHELDON        MOCLDY    61  59  94 SE10      29.78S
SIOUX CITY     CLOUDY    66  63  90 SE9       29.78R
SPENCER        CLOUDY    61  58  90 SE15      29.82F
STORM LAKE     CLOUDY    61  59  94 E10G17    29.83F
$$

ABBREVIATIONS USED IN REMARKS
   TC - TEMPERATURE IN CELSIUS
  WCI - WIND CHILL INDEX
   HX - HEAT INDEX
  VSB - VISIBILITY



USA.gov is the U.S. government's official web portal to all federal, state and local government web resources and services.